Weather History for Covington, KY

Change the Weather History Date:

Saturday, February 9, 2013

  Actual Average Record
Temperature  
Mean Temperature 31 °F 33 °F  
Max Temperature 41 °F 41 °F 67 °F (2001)
Min Temperature 21 °F 25 °F -17 °F (1899)
Degree Days  
Heating Degree Days 34 32  
Month to date heating degree days 319 294  
Since 1 July heating degree days 3147 3266  
Cooling Degree Days 0 0  
Month to date cooling degree days 0 0  
Year to date cooling degree days 0 0  
Moisture  
Dew Point 19 °F    
Average Humidity 58    
Maximum Humidity 77    
Minimum Humidity 38    
Precipitation  
Precipitation 0.00 in 0.10 in 1.18 in (1885)
Month to date precipitation 0.31 0.94  
Year to date precipitation 3.70 3.94  
Snow  
Snow 0.00 in 0.20 in 5.70 in (2010)
Month to date snowfall 2.9 2.4  
Since 1 July snowfall 12.7 14.5  
Snow Depth 0.00 in    
Sea Level Pressure  
Sea Level Pressure 30.35 in    
Wind  
Wind Speed 6 mph (East)    
Max Wind Speed 12 mph    
Max Gust Speed 14 mph    
Visibility 10 miles    
Events      
T = Trace of Precipitation, MM = Missing Value Source: NWS Daily Summary

Daily Weather History Graph

Daily Weather History Graph

Search for Another Location

Airport:

Trip Planner

Search our weather history database for the weather conditions in past years. The results will help you decide how hot, cold, wet, or windy it might be!

Date:

Astronomy

Feb. 09, 2013 Rise Set
Actual Time 7:36 AM EST 6:09 PM EST
Civil Twilight 7:09 AM EST 6:37 PM EST
Nautical Twilight 6:37 AM EST 7:08 PM EST
Astronomical Twilight 6:06 AM EST 7:39 PM EST
Moon 6:48 AM EST (2/9) 5:50 PM EST (2/9)
Length of Visible Light 11h 27m
Length of Day
10h 32m
Waning Crescent, 0% of the Moon is Illuminated
Feb 9
Waning Crescent
Feb 10
New
Feb 17
First Quarter
Feb 25
Full
Mar 4
Last Quarter

Hourly Weather History & Observations

Time (EST) Temp. Windchill Dew Point Humidity Pressure Visibility Wind Dir Wind Speed Gust Speed Precip Events Conditions
12:52 AM 30.9 °F 23.5 °F 21.0 °F 67% 30.35 in 10.0 mi North 8.1 mph - N/A   Overcast
1:52 AM 28.9 °F 21.1 °F 19.9 °F 69% 30.35 in 10.0 mi North 8.1 mph - N/A   Mostly Cloudy
2:52 AM 30.0 °F 23.2 °F 19.9 °F 66% 30.38 in 10.0 mi NNE 6.9 mph - N/A   Overcast
3:52 AM 28.0 °F 21.7 °F 18.0 °F 66% 30.38 in 10.0 mi NNE 5.8 mph - N/A   Partly Cloudy
4:52 AM 27.0 °F 19.5 °F 17.1 °F 66% 30.37 in 10.0 mi ENE 6.9 mph - N/A   Clear
5:52 AM 27.0 °F 20.5 °F 17.1 °F 66% 30.39 in 10.0 mi NE 5.8 mph - N/A   Clear
6:52 AM 25.0 °F 20.7 °F 17.1 °F 72% 30.41 in 10.0 mi East 3.5 mph - N/A   Partly Cloudy
7:52 AM 21.0 °F - 16.0 °F 81% 30.42 in 10.0 mi Calm Calm - N/A   Partly Cloudy
8:52 AM 27.0 °F 18.7 °F 19.0 °F 72% 30.43 in 10.0 mi East 8.1 mph - N/A   Partly Cloudy
9:52 AM 28.9 °F 21.9 °F 18.0 °F 64% 30.43 in 10.0 mi ESE 6.9 mph - N/A   Partly Cloudy
10:52 AM 30.9 °F 22.8 °F 19.0 °F 61% 30.42 in 10.0 mi East 9.2 mph - N/A   Partly Cloudy
11:52 AM 34.0 °F 28.0 °F 19.9 °F 56% 30.41 in 10.0 mi Variable 6.9 mph - N/A   Partly Cloudy
12:52 PM 35.1 °F 32.2 °F 19.0 °F 52% 30.39 in 10.0 mi East 3.5 mph - N/A   Partly Cloudy
1:52 PM 37.9 °F 34.4 °F 18.0 °F 45% 30.36 in 10.0 mi SE 4.6 mph - N/A   Partly Cloudy
2:52 PM 39.9 °F 35.8 °F 17.1 °F 40% 30.34 in 10.0 mi Variable 5.8 mph - N/A   Scattered Clouds
3:52 PM 41.0 °F 37.1 °F 18.0 °F 40% 30.32 in 10.0 mi SE 5.8 mph - N/A   Partly Cloudy
4:52 PM 41.0 °F 38.0 °F 17.1 °F 38% 30.31 in 10.0 mi East 4.6 mph - N/A   Scattered Clouds
6:52 PM 35.1 °F 28.6 °F 19.9 °F 54% 30.30 in 10.0 mi East 8.1 mph - N/A   Mostly Cloudy
7:52 PM 33.1 °F 26.1 °F 19.9 °F 59% 30.30 in 10.0 mi East 8.1 mph - N/A   Scattered Clouds
8:52 PM 33.1 °F 25.5 °F 19.9 °F 59% 30.27 in 10.0 mi East 9.2 mph - N/A   Scattered Clouds
9:52 PM 30.9 °F 23.5 °F 19.9 °F 64% 30.26 in 10.0 mi East 8.1 mph - N/A   Scattered Clouds
10:52 PM 32.0 °F 25.6 °F 19.9 °F 61% 30.25 in 10.0 mi ESE 6.9 mph - N/A   Scattered Clouds
11:52 PM 33.1 °F - 19.9 °F 59% 30.23 in 10.0 mi Calm Calm - N/A   Mostly Cloudy